Date String (YYYY-MM-DD hh:mm:ss) UTC,Instrument flags,Ambient pressure (hPa),Sample flow (lpm),Bypass flow (lpm),Sample temperature (°C),Ambient temperature (°C),ASC tube jacket temperature (°C),LED temperature (°C),Box temperature (°C),Sample RH (%),Span deviation,Mass concentration (μg/m³),Mass concentration (μg/m³),Mass concentration (μg/m³)
DateTimeUTC,F1_M11,P_M11,Q1_M11,Q2_M11,T1_M11,T2_M11,T3_M11,T4_M11,T5_M11,U1_M11,ZSPAN_M11,X0_M11,X2_M11,X1_M11
2022-03-28 05:00:00,,0821.3,4.99,0.00,29.0,28.1,00.0,38.1,30.7,13.5,0004.1,0031.51,0016.58,0015.01
2022-03-28 05:01:00,,0821.3,4.99,0.00,29.0,28.1,00.0,38.1,30.7,13.6,0002.9,0031.85,0016.53,0014.95
2022-03-28 05:02:00,,0821.3,5.00,0.00,29.0,28.1,00.0,38.1,30.7,13.6,0002.8,0031.35,0016.61,0015.04
2022-03-28 05:03:00,,0821.3,5.01,0.00,29.0,28.1,00.0,38.0,30.7,13.6,0002.9,0030.07,0016.73,0015.14
2022-03-28 05:04:00,,0821.4,4.99,0.00,29.0,28.1,00.0,38.0,30.7,13.6,0003.2,0029.96,0016.69,0015.12
2022-03-28 05:05:00,,0821.4,5.01,0.00,29.0,28.1,00.0,38.0,30.7,13.7,0003.1,0029.42,0016.61,0015.06
2022-03-28 05:06:00,,0821.4,4.99,0.00,28.9,28.1,00.0,38.0,30.7,13.7,0002.9,0028.99,0016.46,0014.91
2022-03-28 05:07:00,,0821.4,5.02,0.00,28.9,28.1,00.0,38.0,30.6,13.7,0002.3,0029.79,0016.36,0014.78
2022-03-28 05:08:00,,0821.4,5.00,0.00,28.9,28.1,00.0,38.0,30.7,13.5,0002.1,0029.90,0016.29,0014.77
2022-03-28 05:09:00,,0821.4,4.99,0.00,28.9,28.0,00.0,38.0,30.7,13.6,0002.2,0030.89,0016.42,0014.91
2022-03-28 05:10:00,,0821.4,4.99,0.00,28.9,28.0,00.0,38.0,30.6,13.6,0002.1,0031.21,0016.57,0015.07
2022-03-28 05:11:00,,0821.4,5.01,0.00,28.9,28.0,00.0,38.0,30.6,13.7,0001.7,0030.91,0016.59,0015.07
2022-03-28 05:12:00,,0821.3,4.99,0.00,28.9,28.0,00.0,38.0,30.6,13.8,0002.4,0031.33,0016.47,0014.97
2022-03-28 05:13:00,,0821.3,5.00,0.00,28.9,28.0,00.0,38.0,30.6,13.8,0002.6,0031.63,0016.47,0014.96
2022-03-28 05:14:00,,0821.2,5.00,0.00,28.9,28.0,00.0,38.0,30.6,13.7,0002.8,0031.25,0016.47,0015.03
2022-03-28 05:15:00,,0821.2,5.00,0.00,28.9,28.0,00.0,38.0,30.6,13.7,0002.6,0031.14,0016.63,0015.20
2022-03-28 05:16:00,,0821.3,4.99,0.00,28.9,28.0,00.0,38.0,30.6,13.7,0002.9,0030.39,0016.82,0015.34
2022-03-28 05:17:00,,0821.3,5.01,0.00,28.9,28.0,00.0,38.0,30.6,13.7,0003.2,0030.65,0017.07,0015.57
2022-03-28 05:18:00,,0821.3,5.01,0.00,28.9,28.0,00.0,38.0,30.6,13.6,0003.9,0029.30,0017.23,0015.77
2022-03-28 05:19:00,,0821.3,4.99,0.00,28.9,28.0,00.0,38.0,30.6,13.4,0003.9,0028.97,0017.36,0015.86
2022-03-28 05:20:00,,0821.3,4.99,0.00,28.9,28.0,00.0,37.9,30.6,13.5,0003.9,0028.63,0017.44,0015.87
2022-03-28 05:21:00,,0821.2,5.01,0.00,28.9,28.0,00.0,37.9,30.6,13.7,0004.1,0028.54,0017.45,0015.88
2022-03-28 05:22:00,,0821.2,5.00,0.00,28.9,28.0,00.0,37.9,30.6,13.6,0004.1,0028.46,0017.54,0015.97
2022-03-28 05:23:00,,0821.2,4.99,0.00,28.9,28.0,00.0,37.9,30.6,13.5,0003.9,0027.81,0017.76,0016.15
2022-03-28 05:24:00,,0821.2,5.00,0.00,28.9,28.0,00.0,37.9,30.7,13.4,0003.8,0027.63,0017.83,0016.21
2022-03-28 05:25:00,,0821.2,5.01,0.00,28.9,28.0,00.0,37.9,30.7,13.4,0003.8,0027.70,0017.85,0016.22
2022-03-28 05:26:00,,0821.2,5.00,0.00,28.9,28.0,00.0,37.9,30.7,13.3,0003.7,0027.73,0017.85,0016.20
2022-03-28 05:27:00,,0821.2,4.99,0.00,28.9,28.0,00.0,37.9,30.7,13.3,0003.4,0028.19,0017.84,0016.20
2022-03-28 05:28:00,,0821.2,5.01,0.00,28.9,28.0,00.0,37.9,30.7,13.6,0002.8,0028.32,0017.72,0016.09
2022-03-28 05:29:00,,0821.2,5.00,0.00,28.9,28.0,00.0,37.9,30.7,13.5,0002.3,0028.92,0017.69,0016.03
2022-03-28 05:30:00,,0821.1,4.99,0.00,28.9,28.0,00.0,37.9,30.7,13.3,0002.2,0029.47,0017.68,0016.00
2022-03-28 05:31:00,,0821.1,5.02,0.00,28.9,28.0,00.0,37.9,30.7,13.4,0002.3,0029.73,0017.70,0016.02
2022-03-28 05:32:00,,0821.1,5.00,0.00,28.9,28.0,00.0,37.9,30.7,13.4,0002.2,0029.44,0017.82,0016.10
2022-03-28 05:33:00,,0821.2,4.99,0.00,28.9,28.0,00.0,37.9,30.7,13.4,0002.8,0030.28,0017.99,0016.19
2022-03-28 05:34:00,,0821.3,5.01,0.00,28.9,28.0,00.0,37.9,30.7,13.4,0003.2,0030.78,0018.04,0016.21
2022-03-28 05:35:00,,0821.3,5.00,0.00,28.9,28.0,00.0,37.9,30.7,13.3,0003.1,0031.54,0018.13,0016.28
2022-03-28 05:36:00,,0821.3,5.00,0.00,28.9,28.0,00.0,37.9,30.7,13.3,0002.9,0031.98,0018.29,0016.38
2022-03-28 05:37:00,,0821.2,4.99,0.00,28.9,28.0,00.0,37.9,30.7,13.3,0002.9,0031.55,0018.38,0016.42
2022-03-28 05:38:00,,0821.2,5.01,0.00,28.9,28.0,00.0,37.9,30.7,13.2,0003.0,0031.77,0018.37,0016.41
2022-03-28 05:39:00,,0821.1,4.98,0.00,28.9,28.0,00.0,37.9,30.7,13.1,0003.2,0032.05,0018.48,0016.50
2022-03-28 05:40:00,,0821.2,5.00,0.00,28.9,28.0,00.0,37.9,30.7,13.2,0003.1,0031.55,0018.44,0016.49
2022-03-28 05:41:00,,0821.2,5.01,0.00,28.9,28.0,00.0,37.9,30.7,13.2,0002.8,0030.47,0018.37,0016.46
2022-03-28 05:42:00,,0821.3,4.99,0.00,28.9,28.0,00.0,37.9,30.6,13.3,0002.7,0030.16,0018.30,0016.40
2022-03-28 05:43:00,,0821.2,4.99,0.00,28.9,28.0,00.0,37.9,30.6,13.4,0002.7,0030.58,0018.15,0016.23
2022-03-28 05:44:00,,0821.1,5.01,0.00,28.9,28.0,00.0,37.9,30.6,13.4,0002.0,0030.60,0017.85,0015.99
2022-03-28 05:45:00,,0821.2,5.00,0.00,28.9,27.9,00.0,37.9,30.6,13.4,0001.8,0030.30,0017.68,0015.81
2022-03-28 05:46:00,,0821.2,5.00,0.00,28.9,28.0,00.0,37.9,30.6,13.4,0002.1,0030.10,0017.48,0015.64
2022-03-28 05:47:00,,0821.4,5.01,0.00,28.9,27.9,00.0,37.9,30.6,13.4,0002.3,0029.60,0017.19,0015.42
2022-03-28 05:48:00,,0821.3,5.00,0.00,28.8,27.9,00.0,37.9,30.5,13.3,0002.1,0030.34,0016.99,0015.27
2022-03-28 05:49:00,,0821.3,5.00,0.00,28.8,27.8,00.0,37.9,30.5,13.4,0002.1,0031.32,0016.97,0015.23
2022-03-28 05:50:00,,0821.2,5.01,0.00,28.8,27.8,00.0,37.9,30.4,13.4,0002.7,0031.07,0016.92,0015.22
2022-03-28 05:51:00,,0821.1,5.00,0.00,28.7,27.7,00.0,37.8,30.4,13.2,0002.9,0031.57,0016.92,0015.22
2022-03-28 05:52:00,,0821.2,4.99,0.00,28.7,27.7,00.0,37.8,30.4,13.2,0002.8,0032.77,0016.90,0015.18
2022-03-28 05:53:00,,0821.2,5.01,0.00,28.7,27.7,00.0,37.8,30.4,13.2,0002.6,0033.53,0016.83,0015.13
2022-03-28 05:54:00,,0821.2,4.99,0.00,28.7,27.7,00.0,37.8,30.4,13.2,0002.7,0032.88,0016.75,0015.10
2022-03-28 05:55:00,,0821.3,5.00,0.00,28.7,27.7,00.0,37.8,30.4,13.2,0003.0,0032.38,0016.79,0015.12
2022-03-28 05:56:00,,0821.3,5.00,0.00,28.7,27.7,00.0,37.8,30.4,13.3,0003.1,0032.85,0016.75,0015.12
2022-03-28 05:57:00,,0821.4,4.99,0.00,28.7,27.7,00.0,37.8,30.3,13.4,0002.9,0031.99,0016.68,0015.08
2022-03-28 05:58:00,,0821.3,5.01,0.00,28.7,27.7,00.0,37.8,30.4,13.5,0002.8,0031.73,0016.66,0015.07
2022-03-28 05:59:00,,0821.2,5.01,0.00,28.7,27.7,00.0,37.7,30.4,13.4,0002.8,0031.08,0016.61,0015.06
